Terminal Aerodrome Forecast
Issued by NWS Sioux Falls, SD

Home | Current Version | Previous Version | Graphics & Text | Print | Product List | Glossary On
Versions: 1 2 3 4 5 6 7 8 9 10 11 12 13 14 15 16 17 18 19 20 21 22 23 24 25 26 27 28 29 30 31 32 33 34 35 36
000
FTUS43 KFSD 062353
TAFSUX
TAF
KSUX 062353Z 0700/0724 16018G23KT P6SM SCT025 OVC050
     FM070130 15013KT 4SM -TSRA BKN025CB OVC050
     FM070600 16013G18KT P6SM -SHRA BKN018
     FM071300 19013G19KT P6SM SCT015 BKN040=

USA.gov is the U.S. government's official web portal to all federal, state and local government web resources and services.